GW2366 Weather Reports


Display with metric or nautical units.
time (UTC)temp
F
wind
direction
speed
MPH
gust
MPH
rain 1hr
in
rain 24hr
in
rain mn
in
humidity
%
barometer
mb
20260502224159 58 346 1.0 1.0 0.00 0.01 0.01 83 1011.8
20260502223657 57 240 1.0 1.0 0.00 0.01 0.01 84 1012.0
20260502223155 58 325 1.0 1.0 0.00 0.01 0.01 85 1012.0
20260502222652 58 284 0.0 0.0 0.00 0.01 0.01 84 1012.1
20260502222149 58 217 2.0 2.0 0.00 0.01 0.01 82 1012.2
20260502221644 57 274 0.0 0.0 0.00 0.01 0.01 85 1012.1
20260502221141 57 241 2.0 2.0 0.00 0.01 0.01 85 1012.3
20260502220632 57 76 1.0 1.0 0.00 0.01 0.01 87 1012.5
20260502220128 57 283 1.0 2.0 0.00 0.01 0.01 88 1012.5
20260502215625 57 268 1.0 1.0 0.00 0.01 0.01 87 1012.4
20260502215122 56 247 1.0 1.0 0.00 0.01 0.01 88 1012.4
20260502214619 56 250 1.0 2.0 0.00 0.01 0.01 88 1012.5
20260502214116 56 282 0.0 1.0 0.00 0.01 0.01 89 1012.6
20260502213614 55 263 1.0 1.0 0.00 0.01 0.01 90 1012.5
20260502213111 56 46 1.0 1.0 0.00 0.01 0.01 90 1012.6
20260502212610 56 246 2.0 2.0 0.00 0.01 0.01 90 1012.6
20260502212108 56 278 1.0 1.0 0.00 0.01 0.01 91 1012.7
20260502211603 56 271 2.0 2.0 0.00 0.01 0.01 91 1012.9
20260502211100 55 269 1.0 2.0 0.00 0.01 0.01 92 1012.9
20260502210557 55 275 0.0 0.0 0.00 0.01 0.01 92 1012.9
20260502210054 55 284 0.0 0.0 0.00 0.01 0.01 93 1012.8
20260502205550 55 246 3.0 3.0 0.00 0.01 0.01 93 1012.9
20260502205047 55 276 1.0 1.0 0.00 0.01 0.01 93 1012.8
20260502204543 55 273 0.0 0.0 0.00 0.01 0.01 93 1012.9
20260502204036 55 279 0.0 1.0 0.00 0.01 0.01 93 1012.9
20260502203533 55 293 0.0 1.0 0.00 0.01 0.01 94 1012.9
20260502203030 54 238 2.0 2.0 0.00 0.01 0.01 94 1012.8
20260502202526 54 232 2.0 3.0 0.00 0.01 0.01 94 1012.9
20260502202025 54 333 0.0 1.0 0.00 0.01 0.01 95 1013.0
20260502201520 54 268 2.0 2.0 0.00 0.01 0.01 95 1013.1
20260502201016 54 277 1.0 2.0 0.00 0.01 0.01 95 1013.0
20260502200507 54 289 0.0 0.0 0.00 0.01 0.01 96 1013.2
20260502200005 54 316 0.0 1.0 0.00 0.01 0.01 96 1013.2
20260502195502 53 281 1.0 1.0 0.00 0.01 0.01 96 1013.1
20260502194957 54 287 0.0 0.0 0.00 0.01 0.01 96 1013.1
20260502194449 54 269 1.0 1.0 0.00 0.01 0.01 96 1013.1
20260502193944 54 227 2.0 2.0 0.00 0.01 0.01 95 1013.2
20260502193437 55 268 1.0 1.0 0.00 0.01 0.01 95 1013.2
20260502192932 54 304 0.0 0.0 0.00 0.01 0.01 95 1013.1
20260502192429 54 280 1.0 1.0 0.00 0.01 0.01 96 1013.3
20260502191926 54 265 1.0 1.0 0.00 0.01 0.01 98 1013.3
20260502191424 54 277 1.0 1.0 0.00 0.01 0.01 99 1013.3
20260502190921 54 278 0.0 1.0 0.00 0.01 0.01 99 1013.4
20260502190418 53 269 1.0 1.0 0.00 0.01 0.01 99 1013.4
20260502185913 53 326 0.0 0.0 0.00 0.01 0.01 99 1013.3
20260502185409 53 303 0.0 0.0 0.00 0.01 0.01 99 1013.3
20260502184906 52 241 2.0 2.0 0.00 0.01 0.01 99 1013.5
20260502184401 52 247 3.0 3.0 0.00 0.01 0.01 99 1013.4
20260502183858 52 291 0.0 0.0 0.00 0.01 0.01 99 1013.3
20260502183354 52 356 0.0 0.0 0.00 0.01 0.01 99 1013.2
20260502182850 52 29 1.0 2.0 0.00 0.01 0.01 99 1013.2
20260502182346 52 304 1.0 1.0 0.00 0.01 0.01 99 1013.4
20260502181843 52 133 1.0 1.0 0.00 0.01 0.01 99 1013.3
20260502181342 52 311 0.0 0.0 0.00 0.01 0.01 99 1013.1
20260502180839 52 292 0.0 0.0 0.00 0.01 0.01 99 1013.1
20260502180336 52 188 1.0 1.0 0.00 0.01 0.01 99 1013.2
20260502170254 50 18 0.0 0.0 0.00 0.01 0.01 99 1013.0
20260502164237 50 33 1.0 1.0 0.00 0.01 0.01 99 1013.2
20260502163732 50 352 0.0 1.0 0.00 0.01 0.01 99 1013.0
20260502163229 50 52 0.0 0.0 0.00 0.01 0.01 99 1013.0
20260502162725 50 345 0.0 0.0 0.00 0.01 0.01 99 1013.0
20260502162222 51 314 0.0 0.0 0.00 0.01 0.01 99 1013.0
20260502161714 50 317 0.0 0.0 0.00 0.01 0.01 99 1012.9
20260502161210 50 326 0.0 0.0 0.00 0.01 0.01 99 1012.9
20260502160709 50 290 0.0 0.0 0.00 0.01 0.01 99 1013.0
20260502160208 50 280 0.0 1.0 0.00 0.01 0.01 99 1013.0
20260502152121 50 281 0.0 0.0 0.00 0.01 0.01 99 1012.5
20260502151618 50 289 0.0 0.0 0.00 0.01 0.01 99 1012.5
20260502151115 50 304 0.0 0.0 0.07 0.01 0.01 99 1012.3
20260502150613 50 16 1.0 1.0 0.07 0.01 0.01 99 1012.4
20260502150109 50 294 0.0 0.0 0.00 0.00 0.00 99 1012.5
20260502130457 49 16 1.0 1.0 0.00 0.00 0.00 99 1011.7
20260502123440 49 63 1.0 2.0 0.00 0.00 0.00 99 1011.8
20260502122937 49 50 0.0 1.0 0.00 0.00 0.00 99 1011.8
20260502122433 49 44 1.0 1.0 0.00 0.00 0.00 99 1011.8
20260502121932 49 292 0.0 0.0 0.00 0.00 0.00 99 1011.7
20260502121428 49 322 0.0 0.0 0.00 0.00 0.00 99 1011.8
20260502120926 49 262 1.0 1.0 0.00 0.00 0.00 99 1011.8
20260502120422 49 351 0.0 0.0 0.00 0.00 0.00 99 1011.6
20260502115920 49 63 1.0 2.0 0.00 0.00 0.00 99 1011.3
20260502115416 49 52 1.0 1.0 0.00 0.00 0.00 99 1011.5
20260502114912 49 355 0.0 1.0 0.00 0.00 0.00 99 1011.8
20260502114410 49 33 0.0 1.0 0.00 0.00 0.00 99 1011.6
20260502113907 49 293 0.0 1.0 0.00 0.00 0.00 99 1011.8
20260502113404 49 287 0.0 0.0 0.00 0.00 0.00 99 1012.0
20260502112903 49 22 0.0 0.0 0.00 0.00 0.00 99 1011.7
20260502112400 49 269 0.0 0.0 0.00 0.00 0.00 99 1011.7
20260502111857 49 269 0.0 0.0 0.00 0.00 0.00 99 1011.7
20260502111354 49 343 0.0 0.0 0.00 0.00 0.00 99 1011.6
20260502110851 49 26 0.0 0.0 0.00 0.00 0.00 99 1011.7
20260502110349 49 105 1.0 1.0 0.00 0.00 0.00 99 1011.7
20260502105846 49 96 2.0 2.0 0.00 0.00 0.00 99 1011.7
20260502105343 49 77 1.0 1.0 0.00 0.00 0.00 99 1011.8
20260502104841 49 77 1.0 1.0 0.00 0.00 0.00 99 1011.8
20260502104338 49 52 1.0 1.0 0.00 0.00 0.00 99 1011.8
20260502103835 49 208 0.0 1.0 0.00 0.00 0.00 99 1011.9
20260502103333 49 357 0.0 0.0 0.00 0.00 0.00 99 1012.0
20260502102830 50 38 0.0 1.0 0.00 0.00 0.00 99 1011.9
20260502102326 49 336 0.0 0.0 0.00 0.00 0.00 99 1011.7
20260502101824 49 306 0.0 0.0 0.00 0.00 0.00 99 1011.9
20260502101322 49 306 0.0 0.0 0.00 0.00 0.00 99 1011.9
20260502100820 49 323 0.0 0.0 0.00 0.00 0.00 99 1011.9
20260502100319 49 36 2.0 2.0 0.00 0.00 0.00 99 1011.8
20260502091344 49 79 3.0 3.0 0.00 0.00 0.00 99 1012.3
20260502090842 49 87 2.0 3.0 0.00 0.00 0.00 99 1012.3
20260502090338 49 23 1.0 1.0 0.00 0.00 0.00 99 1012.4
20260502071233 50 5 0.0 0.0 0.00 0.00 0.00 99 1012.5
20260502070732 50 56 3.0 5.0 0.00 0.00 0.00 99 1012.7
20260502070229 50 8 1.0 1.0 0.00 0.00 0.00 99 1012.4
20260502065727 50 48 1.0 1.0 0.00 0.00 0.00 99 1012.5
20260502065225 50 39 1.0 1.0 0.00 0.00 0.00 99 1012.5
20260502064723 50 29 0.0 1.0 0.00 0.00 0.00 99 1012.6
20260502064221 50 11 0.0 1.0 0.00 0.00 0.00 99 1012.6
20260502063718 50 31 1.0 1.0 0.00 0.00 0.00 99 1012.4
20260502063216 50 344 0.0 1.0 0.00 0.00 0.00 99 1012.5
20260502062712 50 14 0.0 1.0 0.00 0.00 0.00 99 1012.7
20260502062210 50 356 0.0 0.0 0.00 0.00 0.00 99 1012.7
20260502061709 50 5 0.0 0.0 0.00 0.00 0.00 99 1012.6
20260502061205 50 23 0.0 1.0 0.00 0.00 0.00 99 1012.6
20260502060701 50 52 0.0 1.0 0.00 0.00 0.00 99 1012.6
20260502060157 50 29 1.0 1.0 0.00 0.00 0.00 99 1012.5
20260502055655 50 32 1.0 1.0 0.00 0.00 0.00 99 1012.6
20260502055153 50 26 1.0 1.0 0.00 0.00 0.00 99 1012.7
20260502054652 50 60 1.0 2.0 0.00 0.00 0.00 99 1012.7
20260502054149 50 315 0.0 0.0 0.00 0.00 0.00 99 1012.8
20260502053646 50 356 0.0 0.0 0.00 0.00 0.00 99 1012.9
20260502053143 50 356 0.0 0.0 0.00 0.00 0.00 99 1012.6
20260502052641 50 334 0.0 1.0 0.00 0.00 0.00 99 1012.7
20260502052139 51 331 0.0 0.0 0.00 0.00 0.00 99 1012.8
20260502051637 51 331 0.0 0.0 0.00 0.00 0.00 99 1012.7
20260502051135 51 346 0.0 0.0 0.00 0.00 0.00 98 1012.8
20260502050631 51 26 0.0 0.0 0.00 0.00 0.00 98 1012.8
20260502050127 51 10 0.0 1.0 0.00 0.00 0.00 98 1012.8
20260502045624 51 1 0.0 0.0 0.00 0.00 0.00 98 1012.7
20260502045121 51 0 0.0 0.0 0.00 0.00 0.00 98 1012.8
20260502044617 51 0 0.0 0.0 0.00 0.00 0.00 97 1012.9
20260502044114 51 0 0.0 0.0 0.00 0.00 0.00 97 1012.7
20260502043612 51 0 0.0 0.0 0.00 0.00 0.00 97 1012.7
20260502043108 52 1 0.0 0.0 0.00 0.00 0.00 97 1012.7
20260502042603 52 4 0.0 0.0 0.00 0.00 0.00 97 1012.7
20260502042101 52 330 0.0 0.0 0.00 0.00 0.00 96 1012.5
20260502041558 52 320 0.0 0.0 0.00 0.00 0.00 96 1012.6
20260502041055 52 281 0.0 0.0 0.00 0.00 0.00 96 1012.5
20260502040551 53 280 0.0 0.0 0.00 0.00 0.00 95 1012.6
20260502040049 53 280 0.0 0.0 0.00 0.00 0.00 95 1012.4
20260502035545 53 281 0.0 0.0 0.00 0.00 0.00 95 1012.3
20260502035042 53 289 0.0 0.0 0.00 0.00 0.00 94 1012.3
20260502034540 54 287 0.0 0.0 0.00 0.00 0.00 93 1012.2
20260502034038 54 279 0.0 0.0 0.00 0.00 0.00 92 1012.0
20260502033536 55 273 0.0 1.0 0.00 0.00 0.00 92 1012.0
20260502033033 55 279 0.0 0.0 0.00 0.00 0.00 91 1012.0
20260502032529 56 279 0.0 0.0 0.00 0.00 0.00 90 1012.1
20260502032026 56 279 0.0 0.0 0.00 0.00 0.00 89 1012.2
20260502031524 57 279 0.0 0.0 0.00 0.00 0.00 89 1012.1
20260502031022 57 279 0.0 0.0 0.00 0.00 0.00 86 1011.9
20260502030520 58 279 0.0 0.0 0.00 0.00 0.00 85 1011.9
20260502030018 58 279 0.0 0.0 0.00 0.00 0.00 84 1011.9
20260502025515 59 279 0.0 0.0 0.00 0.00 0.00 83 1011.8
20260502025013 60 279 0.0 0.0 0.00 0.00 0.00 82 1011.8
20260502024510 60 278 0.0 0.0 0.00 0.00 0.00 80 1011.8
20260502024009 61 280 0.0 0.0 0.00 0.00 0.00 78 1011.8
20260502023506 61 280 0.0 0.0 0.00 0.00 0.00 75 1011.8
20260502023003 62 280 0.0 0.0 0.00 0.00 0.00 75 1011.6
20260502022459 63 279 0.0 0.0 0.00 0.00 0.00 72 1011.7
20260502021956 63 275 0.0 1.0 0.00 0.00 0.00 71 1011.6
20260502021454 64 290 0.0 1.0 0.00 0.00 0.00 71 1011.7
20260502020950 64 280 0.0 1.0 0.00 0.00 0.00 70 1011.7
20260502020449 64 276 1.0 1.0 0.00 0.00 0.00 68 1011.9
20260502015945 65 290 0.0 0.0 0.00 0.00 0.00 66 1011.7
20260502015443 65 277 1.0 1.0 0.00 0.00 0.00 65 1011.7
20260502014939 66 306 0.0 0.0 0.00 0.00 0.00 64 1011.7
20260502014436 66 248 1.0 1.0 0.00 0.00 0.00 63 1011.9
20260502013933 67 278 3.0 3.0 0.00 0.00 0.00 60 1011.9
20260502013428 67 236 1.0 1.0 0.00 0.00 0.00 61 1011.9
20260502012925 68 283 0.0 1.0 0.00 0.00 0.00 63 1012.0
20260502012423 67 248 2.0 2.0 0.00 0.00 0.00 61 1011.9
20260502011920 67 233 3.0 5.0 0.00 0.00 0.00 62 1011.9
20260502011416 67 251 2.0 3.0 0.00 0.00 0.00 62 1012.0
20260502010913 67 271 1.0 1.0 0.00 0.00 0.00 63 1011.9
20260502010410 67 238 2.0 2.0 0.00 0.00 0.00 63 1012.1
20260502005906 67 292 1.0 1.0 0.00 0.00 0.00 64 1012.2
20260502005404 68 281 1.0 2.0 0.00 0.00 0.00 65 1011.9
20260502004902 68 296 1.0 1.0 0.00 0.00 0.00 68 1012.1
20260502004357 69 320 1.0 1.0 0.00 0.00 0.00 68 1012.1
20260502003855 69 324 0.0 0.0 0.00 0.00 0.00 68 1012.1
20260502003352 69 272 0.0 0.0 0.00 0.00 0.00 68 1012.1
20260502002848 69 295 1.0 2.0 0.00 0.00 0.00 68 1012.3
20260502002346 69 248 1.0 2.0 0.00 0.00 0.00 66 1012.2
20260502001843 69 257 2.0 3.0 0.00 0.00 0.00 67 1012.2
20260502001340 69 251 2.0 2.0 0.00 0.00 0.00 64 1012.3
20260502000838 70 250 4.0 5.0 0.00 0.00 0.00 62 1012.2
20260502000336 69 283 1.0 2.0 0.00 0.00 0.00 65 1012.3
20260501235832 69 243 2.0 2.0 0.00 0.00 0.00 64 1012.1
20260501235328 69 229 3.0 5.0 0.00 0.00 0.00 62 1012.1
20260501234823 70 252 2.0 3.0 0.00 0.00 0.00 64 1012.1
20260501234320 70 276 2.0 3.0 0.00 0.00 0.00 63 1012.2
20260501233819 71 295 2.0 2.0 0.00 0.00 0.00 63 1012.3
20260501233316 71 251 2.0 3.0 0.00 0.00 0.00 61 1012.3
20260501232811 70 268 3.0 3.0 0.00 0.00 0.00 65 1012.4
20260501232309 70 221 5.0 7.0 0.00 0.00 0.00 61 1012.4
20260501231806 70 268 1.0 2.0 0.00 0.00 0.00 65 1012.5
20260501231304 71 289 2.0 2.0 0.00 0.00 0.00 66 1012.6
20260501230802 71 298 1.0 2.0 0.00 0.00 0.00 64 1012.7
20260501230300 71 264 2.0 2.0 0.00 0.00 0.00 63 1012.7
20260501225758 71 245 1.0 1.0 0.00 0.00 0.00 65 1012.7
20260501225256 70 257 2.0 2.0 0.00 0.00 0.00 67 1012.8
20260501224751 70 223 4.0 5.0 0.00 0.00 0.00 64 1012.8